QPF
0.06 0.06 0.05 0.05 0.05 0.04 0.05 0.08 0.08 0.06 0.05 0.04 0.03 0.01 0.01 0.02 0.01 0.01 0.03 0.02 0.01 0.01 0.00 0.00 0.00 0.00 0.00 0.00 0.01 0.01 0.01 0.01 0.01 0.01 0.01 0.01 0.01 0.01
0.08 0.08 0.08 0.07 0.06 0.05 0.05 0.07 0.07 0.07 0.06 0.04 0.02 0.01 0.01 0.01 0.01 0.01 0.02 0.02 0.00 0.00 0.00 0.00 0.00 0.01 0.01 0.01 0.01 0.01 0.01 0.01 0.01 0.01 0.01 0.01 0.01 0.01
0.08 0.09 0.08 0.08 0.07 0.05 0.05 0.06 0.07 0.07 0.06 0.03 0.02 0.01 0.02 0.02 0.01 0.02 0.02 0.03 0.02 0.01 0.01 0.01 0.01 0.02 0.02 0.02 0.01 0.01 0.01 0.01 0.01 0.01 0.01 0.01 0.02 0.02
0.07 0.08 0.08 0.08 0.07 0.05 0.05 0.05 0.07 0.08 0.06 0.05 0.04 0.03 0.04 0.03 0.03 0.03 0.03 0.03 0.03 0.02 0.02 0.01 0.01 0.01 0.01 0.01 0.01 0.01 0.01 0.01 0.01 0.01 0.01 0.01 0.01 0.01
0.06 0.06 0.08 0.08 0.08 0.08 0.08 0.08 0.09 0.08 0.07 0.06 0.04 0.04 0.03 0.03 0.04 0.04 0.03 0.03 0.02 0.02 0.02 0.02 0.02 0.02 0.01 0.01 0.01 0.01 0.00 0.01 0.01 0.01 0.00 0.00 0.00 0.01
0.06 0.06 0.07 0.06 0.07 0.08 0.09 0.08 0.08 0.08 0.08 0.06 0.05 0.04 0.05 0.04 0.05 0.05 0.05 0.06 0.05 0.03 0.03 0.03 0.03 0.02 0.01 0.01 0.00 0.01 0.01 0.00 0.00 0.01 0.01 0.01 0.01 0.01
0.05 0.04 0.04 0.05 0.05 0.07 0.07 0.09 0.10 0.08 0.08 0.06 0.05 0.05 0.06 0.07 0.05 0.05 0.05 0.06 0.05 0.03 0.03 0.02 0.02 0.02 0.02 0.01 0.01 0.00 0.01 0.01 0.01 0.01 0.01 0.01 0.01 0.02
0.05 0.05 0.05 0.05 0.06 0.06 0.06 0.07 0.08 0.09 0.09 0.08 0.07 0.06 0.06 0.06 0.06 0.06 0.07 0.07 0.06 0.05 0.05 0.04 0.03 0.03 0.02 0.01 0.01 0.01 0.00 0.00 0.01 0.01 0.01 0.01 0.01 0.01
0.06 0.06 0.05 0.05 0.06 0.05 0.06 0.06 0.07 0.08 0.09 0.10 0.09 0.07 0.05 0.06 0.07 0.07 0.08 0.08 0.07 0.06 0.07 0.05 0.04 0.03 0.03 0.03 0.03 0.02 0.01 0.01 0.01 0.01 0.01 0.01 0.01 0.01
0.07 0.07 0.08 0.09 0.09 0.08 0.06 0.07 0.07 0.07 0.07 0.07 0.07 0.07 0.05 0.05 0.07 0.07 0.09 0.09 0.07 0.05 0.05 0.04 0.03 0.03 0.02 0.02 0.03 0.02 0.01 0.01 0.01 0.01 0.01 0.01 0.01 0.01
0.11 0.10 0.10 0.10 0.09 0.07 0.07 0.08 0.08 0.06 0.06 0.07 0.07 0.08 0.07 0.06 0.06 0.06 0.07 0.07 0.05 0.04 0.05 0.04 0.02 0.02 0.02 0.02 0.02 0.02 0.02 0.02 0.01 0.01 0.01 0.01 0.01 0.01
0.08 0.06 0.05 0.05 0.05 0.05 0.07 0.06 0.05 0.06 0.06 0.07 0.09 0.09 0.07 0.07 0.06 0.05 0.05 0.06 0.05 0.04 0.04 0.04 0.04 0.04 0.03 0.02 0.03 0.03 0.03 0.03 0.02 0.02 0.02 0.02 0.02 0.01
0.05 0.04 0.04 0.04 0.05 0.07 0.08 0.05 0.04 0.04 0.05 0.06 0.06 0.05 0.06 0.06 0.06 0.06 0.06 0.06 0.07 0.08 0.07 0.07 0.06 0.07 0.06 0.04 0.04 0.04 0.03 0.03 0.02 0.02 0.02 0.02 0.02 0.02
0.04 0.03 0.03 0.03 0.03 0.03 0.03 0.04 0.04 0.05 0.04 0.05 0.06 0.07 0.08 0.10 0.11 0.13 0.12 0.10 0.09 0.08 0.09 0.09 0.08 0.07 0.07 0.06 0.05 0.04 0.03 0.03 0.03 0.02 0.03 0.04 0.04 0.05
0.05 0.05 0.03 0.03 0.02 0.02 0.03 0.04 0.04 0.04 0.07 0.09 0.11 0.12 0.12 0.13 0.12 0.12 0.11 0.11 0.11 0.08 0.07 0.08 0.07 0.06 0.06 0.05 0.04 0.03 0.02 0.02 0.03 0.04 0.06 0.06 0.06 0.07
0.06 0.05 0.05 0.06 0.04 0.04 0.04 0.04 0.04 0.03 0.04 0.05 0.05 0.05 0.05 0.05 0.05 0.06 0.07 0.07 0.07 0.06 0.06 0.06 0.06 0.05 0.04 0.04 0.03 0.03 0.02 0.02 0.03 0.04 0.04 0.05 0.05 0.05
0.06 0.06 0.05 0.04 0.03 0.02 0.02 0.02 0.02 0.03 0.03 0.03 0.04 0.05 0.04 0.04 0.04 0.04 0.04 0.03 0.04 0.04 0.05 0.05 0.04 0.04 0.04 0.04 0.03 0.03 0.03 0.03 0.02 0.02 0.02 0.02 0.02 0.03
0.03 0.03 0.03 0.03 0.02 0.02 0.02 0.02 0.02 0.03 0.04 0.04 0.04 0.04 0.04 0.04 0.04 0.04 0.03 0.03 0.03 0.04 0.04 0.04 0.04 0.04 0.04 0.04 0.03 0.02 0.02 0.02 0.01 0.01 0.01 0.02 0.02 0.02
0.04 0.04 0.03 0.03 0.03 0.03 0.03 0.03 0.03 0.03 0.02 0.03 0.03 0.02 0.02 0.02 0.02 0.03 0.03 0.03 0.03 0.02 0.02 0.02 0.03 0.03 0.03 0.03 0.02 0.02 0.02 0.02 0.01 0.01 0.01 0.01 0.02 0.02
0.05 0.05 0.03 0.03 0.03 0.03 0.03 0.02 0.02 0.02 0.02 0.02 0.02 0.01 0.02 0.02 0.02 0.02 0.02 0.01 0.01 0.01 0.01 0.01 0.02 0.02 0.02 0.02 0.02 0.01 0.01 0.01 0.01 0.01 0.01 0.01 0.01 0.02
0.05 0.04 0.03 0.03 0.03 0.03 0.03 0.02 0.02 0.02 0.02 0.02 0.02 0.01 0.01 0.01 0.01 0.01 0.01 0.01 0.01 0.01 0.01 0.01 0.01 0.01 0.01 0.01 0.01 0.01 0.01 0.00 0.00 0.01 0.01 0.01 0.01 0.02
0.03 0.02 0.02 0.02 0.02 0.01 0.01 0.01 0.02 0.02 0.02 0.01 0.01 0.01 0.01 0.01 0.01 0.01 0.01 0.01 0.01 0.01 0.01 0.01 0.00 0.00 0.00 0.01 0.01 0.01 0.00 0.00 0.00 0.00 0.01 0.01 0.01 0.01
0.01 0.01 0.01 0.01 0.01 0.01 0.01 0.00 0.00 0.01 0.01 0.01 0.01 0.01 0.01 0.01 0.01 0.01 0.01 0.01 0.01 0.01 0.01 0.01 0.01 0.01 0.01 0.01 0.01 0.01 0.00 0.00 0.00 0.01 0.01 0.02 0.01 0.01
MSLP
1015.32 1015.59 1015.86 1016.11 1016.31 1016.45 1016.49 1016.43 1016.29 1016.06 1015.79 1015.51 1015.26 1015.07 1014.96 1014.95 1015.04 1015.23 1015.48 1015.77 1016.09 1016.40 1016.70 1016.97 1017.21 1017.41 1017.59 1017.75 1017.89 1018.02 1018.14 1018.24 1018.33 1018.40 1018.46 1018.49 1018.52 1018.52
1014.93 1015.20 1015.47 1015.73 1015.95 1016.11 1016.20 1016.19 1016.10 1015.94 1015.72 1015.49 1015.26 1015.07 1014.94 1014.88 1014.90 1014.99 1015.14 1015.33 1015.55 1015.78 1016.00 1016.22 1016.43 1016.62 1016.81 1016.98 1017.14 1017.30 1017.43 1017.54 1017.63 1017.70 1017.74 1017.76 1017.76 1017.75
1014.48 1014.74 1015.00 1015.26 1015.50 1015.69 1015.83 1015.89 1015.88 1015.81 1015.68 1015.51 1015.34 1015.17 1015.03 1014.93 1014.88 1014.87 1014.91 1014.98 1015.08 1015.20 1015.34 1015.50 1015.67 1015.86 1016.05 1016.25 1016.44 1016.62 1016.78 1016.91 1017.01 1017.07 1017.10 1017.09 1017.07 1017.03
1013.98 1014.22 1014.48 1014.74 1014.99 1015.22 1015.41 1015.56 1015.65 1015.68 1015.66 1015.60 1015.50 1015.38 1015.26 1015.13 1015.02 1014.92 1014.85 1014.79 1014.77 1014.79 1014.84 1014.94 1015.07 1015.25 1015.45 1015.67 1015.89 1016.10 1016.29 1016.43 1016.53 1016.58 1016.59 1016.55 1016.49 1016.41
1013.45 1013.68 1013.93 1014.20 1014.47 1014.74 1015.01 1015.24 1015.44 1015.60 1015.70 1015.76 1015.76 1015.71 1015.62 1015.49 1015.34 1015.17 1015.00 1014.85 1014.72 1014.64 1014.61 1014.65 1014.74 1014.90 1015.10 1015.33 1015.57 1015.80 1016.00 1016.15 1016.24 1016.27 1016.25 1016.18 1016.08 1015.95
1012.97 1013.19 1013.45 1013.72 1014.03 1014.35 1014.68 1015.01 1015.32 1015.60 1015.83 1016.00 1016.11 1016.14 1016.10 1015.99 1015.83 1015.62 1015.39 1015.16 1014.96 1014.80 1014.70 1014.68 1014.73 1014.86 1015.05 1015.28 1015.52 1015.74 1015.93 1016.07 1016.14 1016.14 1016.09 1015.98 1015.83 1015.66
1012.61 1012.86 1013.12 1013.43 1013.76 1014.14 1014.53 1014.94 1015.34 1015.72 1016.06 1016.34 1016.54 1016.65 1016.67 1016.60 1016.45 1016.23 1015.97 1015.70 1015.44 1015.23 1015.08 1015.01 1015.02 1015.11 1015.27 1015.47 1015.68 1015.88 1016.03 1016.14 1016.17 1016.14 1016.05 1015.90 1015.72 1015.51
1012.51 1012.78 1013.07 1013.40 1013.77 1014.18 1014.62 1015.08 1015.55 1016.00 1016.41 1016.76 1017.03 1017.21 1017.28 1017.25 1017.12 1016.91 1016.65 1016.36 1016.08 1015.84 1015.65 1015.54 1015.51 1015.56 1015.67 1015.81 1015.97 1016.12 1016.22 1016.27 1016.26 1016.18 1016.05 1015.87 1015.65 1015.41
1012.74 1013.04 1013.37 1013.72 1014.11 1014.54 1015.00 1015.47 1015.95 1016.43 1016.86 1017.24 1017.55 1017.76 1017.86 1017.86 1017.76 1017.57 1017.32 1017.04 1016.76 1016.50 1016.29 1016.15 1016.08 1016.07 1016.12 1016.19 1016.28 1016.35 1016.38 1016.37 1016.30 1016.17 1016.00 1015.78 1015.54 1015.28
1013.35 1013.69 1014.04 1014.41 1014.80 1015.22 1015.65 1016.10 1016.56 1017.00 1017.41 1017.76 1018.05 1018.25 1018.36 1018.36 1018.28 1018.11 1017.88 1017.62 1017.35 1017.09 1016.87 1016.70 1016.58 1016.52 1016.49 1016.49 1016.49 1016.47 1016.42 1016.34 1016.20 1016.02 1015.81 1015.57 1015.31 1015.04
1014.32 1014.68 1015.04 1015.40 1015.78 1016.15 1016.54 1016.92 1017.30 1017.66 1018.00 1018.29 1018.51 1018.67 1018.74 1018.74 1018.65 1018.49 1018.28 1018.03 1017.77 1017.52 1017.29 1017.10 1016.94 1016.82 1016.72 1016.63 1016.54 1016.44 1016.31 1016.14 1015.94 1015.72 1015.47 1015.21 1014.94 1014.67
1015.54 1015.91 1016.26 1016.60 1016.93 1017.25 1017.55 1017.85 1018.12 1018.38 1018.60 1018.79 1018.93 1019.01 1019.03 1018.98 1018.88 1018.71 1018.51 1018.27 1018.02 1017.78 1017.54 1017.32 1017.13 1016.95 1016.78 1016.62 1016.45 1016.26 1016.05 1015.81 1015.56 1015.29 1015.02 1014.74 1014.46 1014.19
1016.90 1017.24 1017.56 1017.86 1018.13 1018.37 1018.58 1018.77 1018.94 1019.08 1019.18 1019.26 1019.30 1019.29 1019.24 1019.15 1019.01 1018.83 1018.62 1018.39 1018.15 1017.90 1017.65 1017.41 1017.18 1016.96 1016.73 1016.50 1016.25 1015.99 1015.71 1015.42 1015.12 1014.82 1014.52 1014.23 1013.96 1013.69
1018.24 1018.53 1018.80 1019.04 1019.24 1019.40 1019.53 1019.63 1019.69 1019.72 1019.73 1019.70 1019.64 1019.56 1019.44 1019.30 1019.12 1018.92 1018.70 1018.47 1018.22 1017.96 1017.70 1017.44 1017.18 1016.91 1016.64 1016.35 1016.04 1015.72 1015.39 1015.06 1014.72 1014.39 1014.08 1013.78 1013.51 1013.25
1019.43 1019.66 1019.87 1020.04 1020.18 1020.27 1020.33 1020.36 1020.34 1020.30 1020.23 1020.13 1020.00 1019.85 1019.69 1019.50 1019.29 1019.07 1018.83 1018.58 1018.32 1018.05 1017.78 1017.49 1017.20 1016.90 1016.58 1016.24 1015.89 1015.53 1015.16 1014.79 1014.43 1014.09 1013.76 1013.47 1013.20 1012.95
1020.43 1020.58 1020.71 1020.82 1020.91 1020.95 1020.97 1020.95 1020.90 1020.81 1020.70 1020.56 1020.40 1020.21 1020.01 1019.80 1019.56 1019.32 1019.06 1018.79 1018.52 1018.23 1017.93 1017.62 1017.30 1016.96 1016.60 1016.23 1015.84 1015.45 1015.05 1014.66 1014.29 1013.93 1013.61 1013.32 1013.06 1012.83
1021.21 1021.28 1021.35 1021.41 1021.46 1021.48 1021.48 1021.45 1021.39 1021.30 1021.18 1021.03 1020.86 1020.66 1020.44 1020.21 1019.96 1019.70 1019.42 1019.13 1018.83 1018.51 1018.18 1017.84 1017.48 1017.10 1016.71 1016.31 1015.89 1015.47 1015.05 1014.65 1014.26 1013.91 1013.59 1013.30 1013.06 1012.84
1021.83 1021.85 1021.87 1021.89 1021.92 1021.93 1021.93 1021.92 1021.87 1021.80 1021.70 1021.56 1021.39 1021.20 1020.98 1020.73 1020.46 1020.18 1019.88 1019.56 1019.23 1018.88 1018.51 1018.13 1017.73 1017.31 1016.88 1016.44 1015.99 1015.54 1015.10 1014.68 1014.29 1013.93 1013.62 1013.35 1013.11 1012.92
1022.40 1022.37 1022.36 1022.37 1022.39 1022.41 1022.43 1022.44 1022.42 1022.37 1022.29 1022.17 1022.01 1021.81 1021.58 1021.31 1021.03 1020.71 1020.38 1020.03 1019.66 1019.27 1018.86 1018.43 1017.99 1017.53 1017.05 1016.57 1016.08 1015.60 1015.14 1014.69 1014.29 1013.92 1013.61 1013.34 1013.12 1012.93
1022.99 1022.94 1022.92 1022.93 1022.96 1023.00 1023.04 1023.07 1023.07 1023.04 1022.97 1022.85 1022.68 1022.46 1022.21 1021.92 1021.60 1021.25 1020.88 1020.49 1020.08 1019.64 1019.19 1018.71 1018.22 1017.71 1017.18 1016.65 1016.12 1015.59 1015.09 1014.62 1014.19 1013.80 1013.47 1013.20 1012.97 1012.79
1023.65 1023.61 1023.60 1023.63 1023.68 1023.74 1023.80 1023.84 1023.85 1023.81 1023.72 1023.58 1023.38 1023.13 1022.84 1022.50 1022.14 1021.75 1021.33 1020.90 1020.44 1019.96 1019.46 1018.94 1018.40 1017.83 1017.25 1016.67 1016.08 1015.51 1014.96 1014.44 1013.97 1013.55 1013.18 1012.88 1012.64 1012.44
1024.39 1024.38 1024.40 1024.46 1024.53 1024.61 1024.68 1024.71 1024.71 1024.65 1024.53 1024.34 1024.09 1023.78 1023.43 1023.04 1022.62 1022.17 1021.71 1021.23 1020.74 1020.22 1019.69 1019.12 1018.53 1017.92 1017.29 1016.65 1016.00 1015.37 1014.76 1014.18 1013.65 1013.18 1012.77 1012.42 1012.13 1011.90
1025.17 1025.20 1025.27 1025.35 1025.45 1025.54 1025.61 1025.64 1025.61 1025.50 1025.32 1025.08 1024.75 1024.38 1023.95 1023.49 1023.02 1022.52 1022.02 1021.50 1020.98 1020.44 1019.87 1019.28 1018.66 1018.00 1017.33 1016.63 1015.93 1015.23 1014.56 1013.92 1013.32 1012.78 1012.30 1011.88 1011.53 1011.23
Thickness
5745 5743 5742 5743 5742 5741 5739 5736 5729 5725 5729 5735 5738 5740 5737 5736 5734 5731 5730 5727 5725 5723 5721 5719 5718 5716 5714 5712 5711 5709 5708 5706 5704 5703 5701 5699 5698 5696
5743 5742 5740 5741 5741 5739 5738 5737 5734 5730 5727 5734 5736 5739 5736 5736 5732 5731 5730 5727 5725 5723 5721 5719 5717 5716 5714 5712 5710 5709 5707 5705 5703 5702 5700 5698 5697 5695
5742 5741 5739 5739 5739 5738 5737 5735 5733 5731 5726 5731 5734 5735 5731 5730 5730 5729 5729 5727 5727 5723 5721 5719 5717 5715 5713 5711 5709 5708 5706 5704 5702 5700 5698 5696 5695 5693
5741 5739 5738 5739 5736 5735 5734 5733 5732 5730 5726 5724 5728 5730 5728 5727 5727 5726 5728 5728 5727 5724 5721 5718 5716 5714 5712 5710 5708 5706 5704 5702 5700 5698 5696 5694 5693 5691
5740 5738 5737 5736 5733 5734 5732 5731 5730 5730 5727 5724 5725 5726 5726 5726 5724 5723 5725 5723 5724 5723 5720 5717 5714 5712 5710 5708 5706 5704 5702 5700 5697 5695 5694 5692 5690 5688
5739 5738 5737 5735 5733 5731 5730 5729 5728 5726 5724 5722 5722 5723 5722 5722 5719 5719 5720 5721 5721 5722 5719 5716 5713 5710 5708 5706 5703 5702 5699 5697 5695 5693 5691 5689 5687 5685
5737 5736 5735 5733 5731 5729 5729 5727 5725 5722 5721 5720 5718 5717 5717 5715 5715 5717 5716 5716 5717 5717 5715 5714 5712 5710 5706 5703 5700 5698 5696 5693 5691 5689 5687 5685 5683 5680
5733 5732 5731 5729 5727 5724 5721 5720 5718 5718 5717 5715 5715 5712 5710 5711 5710 5710 5710 5708 5707 5711 5708 5707 5707 5705 5703 5700 5697 5695 5692 5689 5686 5684 5682 5679 5677 5675
5729 5727 5728 5727 5723 5722 5718 5714 5712 5711 5709 5709 5708 5707 5706 5706 5704 5703 5702 5700 5699 5702 5699 5697 5699 5698 5696 5694 5692 5689 5686 5683 5680 5677 5675 5673 5670 5668
5723 5722 5720 5718 5717 5715 5713 5711 5709 5707 5706 5704 5702 5701 5700 5699 5698 5697 5695 5694 5694 5694 5692 5688 5690 5689 5689 5687 5683 5681 5677 5674 5671 5669 5666 5664 5662 5660
5717 5715 5713 5711 5708 5706 5705 5704 5702 5700 5698 5696 5694 5693 5691 5690 5690 5690 5689 5686 5685 5687 5685 5681 5681 5679 5679 5678 5674 5670 5667 5664 5661 5658 5656 5654 5652 5650
5709 5707 5703 5702 5699 5698 5698 5697 5694 5693 5692 5691 5688 5686 5685 5683 5681 5680 5681 5679 5678 5676 5676 5673 5671 5669 5668 5669 5665 5662 5658 5654 5650 5647 5645 5642 5640 5639
5703 5699 5696 5692 5690 5688 5688 5687 5685 5684 5684 5683 5681 5680 5678 5676 5674 5672 5671 5670 5667 5665 5665 5662 5660 5658 5655 5655 5654 5651 5647 5643 5640 5637 5634 5630 5627 5624
5695 5692 5687 5683 5681 5679 5678 5676 5676 5676 5676 5674 5671 5669 5667 5666 5664 5662 5659 5657 5655 5653 5651 5649 5648 5645 5643 5641 5639 5638 5634 5631 5628 5625 5622 5618 5614 5611
5685 5680 5677 5675 5673 5671 5667 5666 5667 5667 5666 5663 5661 5658 5656 5655 5653 5651 5649 5646 5644 5642 5640 5636 5634 5633 5630 5628 5626 5623 5621 5618 5615 5612 5608 5605 5602 5599
5677 5672 5669 5666 5665 5662 5660 5659 5657 5655 5654 5651 5650 5648 5646 5645 5642 5640 5638 5637 5635 5633 5629 5625 5621 5619 5618 5615 5613 5611 5608 5606 5603 5599 5594 5592 5589 5587
5670 5666 5664 5661 5658 5655 5653 5650 5648 5646 5643 5640 5638 5636 5634 5632 5630 5628 5626 5626 5623 5621 5618 5614 5610 5607 5604 5602 5601 5598 5596 5593 5589 5585 5580 5579 5577 5573
5661 5658 5653 5650 5647 5644 5642 5639 5636 5633 5631 5628 5626 5623 5622 5620 5618 5616 5614 5611 5609 5606 5604 5602 5599 5597 5594 5591 5584 5583 5582 5578 5575 5571 5567 5565 5564 5560
5651 5647 5642 5639 5635 5632 5629 5627 5624 5621 5619 5617 5615 5613 5611 5609 5606 5604 5601 5598 5595 5593 5590 5587 5584 5582 5580 5577 5573 5566 5564 5561 5559 5557 5554 5552 5549 5547
5639 5635 5631 5627 5623 5620 5617 5615 5613 5611 5608 5606 5603 5601 5599 5596 5594 5591 5588 5583 5581 5579 5577 5574 5569 5564 5561 5559 5558 5555 5548 5546 5544 5541 5539 5537 5535 5532
5625 5622 5618 5615 5611 5608 5605 5603 5601 5598 5595 5593 5591 5588 5586 5584 5581 5578 5575 5569 5568 5567 5563 5560 5554 5548 5547 5547 5546 5544 5539 5531 5527 5524 5524 5523 5523 5522
5613 5609 5606 5603 5600 5596 5593 5591 5589 5586 5583 5581 5578 5575 5573 5571 5568 5565 5563 5560 5557 5554 5551 5548 5544 5541 5538 5536 5534 5532 5529 5523 5518 5513 5510 5507 5505 5506
5602 5598 5595 5592 5588 5585 5582 5579 5577 5574 5570 5568 5565 5563 5561 5558 5555 5553 5550 5547 5544 5541 5538 5535 5533 5529 5527 5524 5521 5519 5516 5512 5510 5506 5503 5497 5493 5490